カタログに戻る

STARLINK-11372

運用中通信VLEO
NORAD 61576·PAYLOAD·🇺🇸 United States

打ち上げ Oct 18, 2024 から Cape Canaveral Space Force Station

Loading…

次のパス (今後24時間)

TLE

最新Source: CelesTrak SupGP

元期: Sep 14, 2026, 22:32 UTC

1 61576C 24187C   26257.93937500  .00104330  00000+0  85875-3 0  2578
2 61576  53.1572  83.2324 0001149  56.6319   5.8103 15.69675438    19

AllMySatでSTARLINK-11372をリアルタイム追跡

Download on the App Store